Regional Weather Roundup
Issued by NWS Kansas City/Pleasant Hill, MO

Home | Current Version | Previous Version | Graphics & Text | Print | Product List | Glossary Off
Versions: 1 2 3 4 5 6 7 8 9 10 11 12 13 14 15 16 17 18 19 20 21 22 23 24 25 26 27 28 29 30 31 32 33 34 35 36 37 38 39 40 41 42 43 44 45 46 47 48 49 50

000
ASUS43 KEAX 010910
RWREAX

WEATHER ROUNDUP FOR EASTERN KANSAS AND NORTHWEST MISSOURI
NATIONAL WEATHER SERVICE KANSAS CITY/PLEASANT HILL MO
400 AM CDT SAT AUG 01 2015

KSZ040-057-103>105-MOZ028-029-037-043-011000-
...KANSAS CITY METROPOLITAN AREA...

CITY           SKY/WX    TMP DP  RH WIND       PRES   REMARKS
K.C. INTL      CLEAR     73  69  87 CALM      30.06R
K.C. DOWNTOWN  CLEAR     77  67  71 SW3       30.04S
LEES SUMMIT    CLEAR     73  64  73 SW6       30.06F
OLATHE - IXD   CLEAR     72  68  87 S3        30.07F
OLATHE - OJC   CLEAR     71  67  87 CALM      30.06S
LAWRENCE       CLEAR     69  67  93 SE3       30.05F

$$

MOZ001>008-011>017-020>025-030>033-038>040-044>046-053-054-011000-
...NORTHERN AND CENTRAL MISSOURI...

CITY           SKY/WX    TMP DP  RH WIND       PRES   REMARKS
ST. JOSEPH     CLEAR     72  69  90 S3        30.05S
MOSBY          MOSUNNY   70  70 100 CALM      30.05S
WARRENSBURG    CLEAR     70  63  78 CALM      30.05S
WHITEMAN AFB   CLEAR     69  64  85 SW5       30.04F
CLINTON        CLEAR     72  68  88 SW6       30.06F
SEDALIA        CLEAR     72  65  78 SW6       30.06F
WARSAW         NOT AVBL
CHILLICOTHE      N/A     71  67  87 CALM      30.06S
KIRKSVILLE     LGT RAIN  71  67  87 NE10      30.07R

$$

MOZ041-047>049-056>058-063>065-088>090-097-011000-
...EASTERN AND SOUTHERN MISSOURI...

CITY           SKY/WX    TMP DP  RH WIND       PRES   REMARKS
ST. LOUIS INTL PTCLDY    74  66  76 N6        30.04S
SPIRIT OF STL  CLEAR     68  67  96 CALM      30.02F
COLUMBIA       CLEAR     74  67  78 SW3       30.06S
JEFFERSON CITY CLEAR     68  66  93 CALM      30.05R
ROLLA          CLEAR     66  62  87 W5        30.06S
OSAGE BEACH    CLEAR     66  63  88 CALM      30.07S
SPRINGFIELD    CLEAR     64  59  83 CALM      30.08S
BRANSON        PTCLDY    66  61  82 CALM      30.11R
JOPLIN         CLEAR     62  58  86 CALM      30.08S
WEST PLAINS    CLEAR     67  62  84 CALM      30.10S

$$

IAZ060-094-KSZ022-034>040-054-083-096-NEZ052-066-093-011000-
...KANSAS...SOUTHEAST NEBRASKA AND IOWA...

CITY           SKY/WX    TMP DP  RH WIND       PRES   REMARKS
TOPEKA         CLEAR     72  68  87 CALM      30.05F
MANHATTAN      CLEAR     70  69  97 CALM      30.06S
EMPORIA        CLEAR     72  70  93 CALM      30.08F
CHANUTE        CLEAR     67  67 100 CALM      30.08R
WICHITA        PTCLDY    74  71  91 CALM      30.09S
OMAHA          CLEAR     71  67  87 SE6       30.04F
LINCOLN        CLEAR     64  62  93 CALM      30.07F
FALLS CITY     PTCLDY    73  69  87 S3        30.03F
LAMONI         CLEAR     68  65  90 CALM      30.06F
DES MOINES     PTCLDY    71  64  78 CALM      30.04S

$$



USA.gov is the U.S. government's official web portal to all federal, state and local government web resources and services.